Wind_Speed
6 6 6 5 4 3 2 2 3 6 7 9 10 12 13 12 12 12 12 12 12 11 11 11 10 10 9 10 9 9 9 9 8 7 6 6 5 5 4 3 3 3 3 2 3 3 2 2 1
8 7 7 7 5 4 3 3 3 5 7 8 9 11 12 11 11 11 12 12 11 10 10 10 10 9 9 9 9 9 9 8 8 7 6 5 5 5 4 3 3 3 3 3 2 2 3 2 1
9 9 9 8 7 5 4 3 4 4 6 7 8 9 10 11 10 11 11 11 10 10 9 10 10 10 9 9 9 8 8 8 7 7 6 5 5 4 4 3 3 3 3 3 3 2 2 1 1
11 11 10 9 7 5 5 4 5 5 6 8 7 8 10 10 10 10 11 10 10 9 9 9 9 10 9 9 8 8 8 7 7 7 6 5 5 4 3 3 3 2 2 2 2 2 1 1 0
12 12 11 10 8 7 5 4 5 4 5 6 8 8 8 9 10 10 10 10 10 10 9 9 9 9 9 9 8 8 7 7 7 6 5 5 4 3 3 3 3 2 2 2 2 1 1 1 1
13 13 13 12 10 9 7 5 5 4 5 6 7 8 8 9 9 10 10 10 10 9 9 9 9 9 9 8 8 7 6 6 6 5 5 5 4 4 3 3 2 2 2 2 2 1 1 1 1
14 14 14 13 12 11 9 7 6 5 5 5 6 8 8 9 9 9 10 10 10 9 9 9 9 9 8 8 7 7 6 5 5 4 4 4 4 4 4 3 3 2 2 2 2 2 1 2 2
15 15 14 14 14 13 11 9 7 7 6 5 6 7 8 9 9 9 9 9 9 9 9 9 9 9 8 8 7 7 7 6 5 4 4 4 3 4 3 3 3 2 1 1 2 2 3 2 2
16 15 15 15 15 15 13 10 8 8 8 7 6 6 7 8 9 10 9 9 9 9 10 10 9 9 9 8 8 7 7 6 5 5 3 3 3 4 3 3 2 2 2 2 2 2 3 3 3
18 17 17 17 17 16 15 12 10 9 9 8 7 6 7 7 8 9 9 9 9 10 10 10 10 9 9 9 8 8 7 6 6 5 4 4 4 3 3 2 2 2 2 2 3 3 3 3 3
19 18 18 18 18 17 15 14 12 11 10 9 8 7 7 7 8 8 8 9 9 10 10 10 10 9 9 8 8 8 8 7 6 6 5 5 4 3 3 3 2 2 2 1 2 3 3 3 3
20 20 20 20 19 18 17 16 14 13 12 10 9 8 7 7 7 8 8 8 9 9 10 10 10 10 10 9 8 8 8 8 7 6 6 5 4 4 4 3 3 3 3 2 2 3 3 4 5
21 21 21 21 20 19 18 17 16 15 14 12 10 9 8 8 8 8 8 9 9 9 9 10 10 10 10 10 10 9 8 8 7 7 7 6 5 5 5 4 4 3 3 3 3 3 4 4 5
22 22 22 22 21 21 20 19 17 15 14 13 11 10 9 9 9 8 9 9 9 10 10 10 11 11 11 11 10 10 8 7 8 7 7 7 7 6 6 5 5 4 4 4 4 4 4 4 4
22 22 22 22 23 22 21 20 18 17 16 13 12 10 10 9 9 8 9 9 9 10 10 10 11 11 12 12 11 10 9 8 8 8 8 8 8 7 7 7 6 6 5 5 5 5 5 5 5
22 22 21 22 24 24 22 20 19 18 16 14 13 11 10 10 10 9 9 9 9 10 10 11 12 12 12 12 11 10 9 8 8 9 9 9 9 8 8 8 8 7 7 6 6 6 6 6 6
22 22 22 22 23 23 23 21 20 19 17 15 14 13 12 11 10 9 9 9 10 10 11 11 11 11 12 12 12 11 11 10 9 9 8 9 9 9 9 8 8 8 8 8 7 7 8 8 7
22 22 22 22 22 22 22 21 20 19 18 16 15 14 13 11 10 9 9 10 11 11 11 12 11 12 12 12 12 11 11 10 10 10 9 9 9 9 9 9 9 9 9 9 9 9 9 9 8
23 22 22 22 23 23 22 21 20 20 19 17 16 14 13 12 11 10 10 11 12 13 13 13 12 13 14 13 12 11 10 10 10 10 10 9 9 9 9 10 10 10 10 10 10 10 10 10 10
23 23 23 23 23 23 23 22 21 21 20 18 17 15 14 14 13 12 11 12 13 14 14 13 14 14 14 14 13 12 10 10 10 10 9 8 9 9 9 10 10 11 11 11 10 11 11 11 10
22 22 22 23 24 23 23 22 22 21 21 20 19 18 16 15 14 13 13 13 14 14 14 14 15 15 14 14 12 12 11 10 9 9 8 8 8 9 11 11 12 12 12 11 10 10 11 11 10
21 21 22 24 25 24 24 24 22 22 22 21 20 19 17 17 16 15 14 14 15 15 14 15 15 15 15 14 13 11 10 9 9 9 8 8 8 9 10 10 10 10 10 10 10 11 11 11 11
20 21 23 25 26 26 25 25 22 22 22 21 20 20 18 17 17 16 15 15 15 15 15 15 15 15 14 13 13 12 11 10 9 9 9 9 9 9 9 10 10 9 10 10 11 12 12 12 11
22 23 24 26 27 27 25 26 24 24 23 21 20 20 19 17 17 17 17 17 16 16 16 16 15 15 14 13 13 12 11 10 10 10 10 9 9 10 9 9 9 10 11 12 12 13 13 13 12
22 23 24 26 27 27 25 27 25 24 23 21 20 20 19 19 18 18 18 19 17 16 16 16 16 15 14 13 13 12 11 11 11 11 11 11 10 9 10 9 10 10 11 12 13 14 14 14 13
22 23 24 25 25 26 26 26 24 23 22 21 21 20 20 20 19 18 18 19 17 17 16 16 16 16 16 14 14 13 12 12 12 11 11 11 11 11 11 10 10 11 12 12 14 14 14 15 15
22 23 23 25 25 26 26 26 25 23 23 22 21 21 20 20 19 18 17 16 16 16 16 16 16 16 16 15 14 14 14 14 13 13 13 13 13 13 13 12 11 11 12 12 13 15 15 16 16
23 23 24 25 26 26 26 25 24 23 23 23 22 21 20 19 18 17 16 15 15 15 16 16 17 17 16 16 16 16 16 16 15 15 14 14 14 14 14 14 13 13 13 14 14 14 15 15 16
24 24 24 24 26 27 26 24 22 22 22 21 21 20 19 19 19 18 17 16 16 16 16 17 17 17 16 16 16 17 17 17 17 16 16 16 16 16 15 15 15 15 15 15 15 15 15 16 17
25 25 25 25 26 27 25 24 22 22 21 20 20 20 19 18 18 19 18 18 17 17 17 17 16 16 16 17 17 17 18 18 18 17 17 18 17 17 17 17 16 16 16 16 16 17 17 17 17
Wind_Direction
221 225 232 236 238 251 265 308 352 8 9 13 14 13 13 13 12 12 10 9 8 9 13 16 17 20 23 25 28 35 38 38 40 43 46 45 44 39 41 49 47 44 41 49 51 71 78 81 101
226 227 233 239 243 252 274 298 332 353 357 3 7 9 10 8 8 9 7 6 5 8 12 15 17 17 20 25 28 35 37 38 39 41 42 41 38 36 37 36 33 30 27 35 40 58 75 80 88
229 229 233 239 244 257 277 295 314 329 343 352 0 4 4 3 3 7 5 4 2 6 10 14 17 19 23 24 25 32 33 34 34 32 35 34 28 24 24 17 16 18 15 19 21 23 43 67 67
230 229 232 239 248 256 260 283 300 320 340 346 354 355 358 359 360 2 4 2 360 5 9 15 19 21 21 23 27 28 28 28 27 26 30 28 26 19 14 12 10 0 4 10 13 1 356 11 32
231 230 233 241 247 253 258 272 295 316 334 342 349 349 354 357 357 358 0 359 360 3 7 11 15 16 16 18 21 22 24 24 23 22 27 26 24 24 15 17 13 357 356 355 347 339 315 279 272
231 230 232 237 243 247 252 264 278 293 309 325 340 346 352 350 350 353 357 358 357 359 4 7 10 11 11 10 14 17 18 16 17 21 24 19 18 18 8 3 360 351 347 333 305 303 296 274 271
231 233 233 235 237 240 246 258 271 289 302 324 331 340 347 347 348 350 352 354 356 360 3 6 5 5 6 7 7 8 7 6 6 10 11 4 3 1 0 355 345 345 352 333 301 277 282 277 276
234 236 235 233 236 240 247 254 265 281 289 304 323 334 344 348 348 349 348 349 355 359 0 3 4 3 1 2 3 1 357 354 355 354 347 344 345 345 350 348 336 334 326 305 299 274 274 286 276
234 234 234 234 237 241 245 252 263 273 280 295 314 327 338 343 343 344 347 348 350 353 354 355 359 358 356 355 355 352 348 343 341 340 331 325 330 331 333 332 336 335 315 292 297 270 270 265 262
234 233 235 236 240 243 246 252 260 269 277 289 306 316 322 332 335 336 344 346 346 349 350 349 351 351 348 346 345 343 339 335 331 327 323 318 314 319 315 314 323 334 325 310 295 293 272 266 261
234 232 235 238 241 245 249 253 258 264 273 283 292 297 310 320 325 328 335 340 342 342 343 341 343 344 342 341 338 336 330 326 327 323 312 305 303 298 287 292 304 306 308 295 276 275 269 276 269
234 233 233 237 242 247 251 254 256 262 269 278 283 285 302 313 315 314 322 329 335 336 338 337 338 334 332 333 332 328 321 316 317 316 312 306 298 291 276 278 284 286 284 283 284 268 259 257 265
234 235 236 238 242 247 253 254 256 261 268 274 276 278 293 302 304 305 310 318 324 329 332 332 331 329 327 326 326 322 316 311 312 309 307 299 290 284 279 273 270 274 281 281 284 288 280 269 265
235 236 238 239 243 248 252 254 256 259 266 273 273 278 285 292 296 300 307 311 314 318 323 329 330 329 327 323 322 325 317 308 303 302 303 296 286 279 275 270 265 265 269 279 288 282 284 288 278
237 236 236 238 242 246 250 252 255 259 264 270 270 272 277 284 289 295 302 305 307 312 319 322 324 323 322 321 318 318 315 308 301 299 300 291 281 276 274 271 262 256 259 265 271 275 275 280 281
239 238 236 238 240 244 248 249 253 257 261 264 264 267 270 277 282 287 291 297 302 309 314 316 317 317 316 315 313 310 308 307 299 298 297 287 276 271 269 269 263 258 257 258 261 264 265 270 269
240 239 236 236 240 243 246 248 252 252 256 258 260 262 265 272 280 285 287 291 297 302 305 309 310 314 311 309 307 302 303 300 297 293 290 286 278 268 264 263 262 260 259 259 259 262 265 263 264
242 240 236 235 240 244 246 249 249 248 251 254 257 259 264 270 275 277 281 285 290 295 297 302 305 311 311 307 303 298 296 294 293 289 285 281 276 267 263 259 258 259 260 261 259 261 264 262 262
241 240 237 237 240 243 244 245 245 246 248 251 254 256 262 263 264 269 278 281 284 289 294 296 301 306 306 305 299 296 293 292 290 286 283 276 269 259 258 256 257 258 258 258 260 263 262 259 260
241 241 237 237 241 243 242 244 246 246 246 248 248 251 254 257 263 270 279 283 284 291 292 294 300 301 302 303 295 292 291 290 288 282 280 279 271 259 256 253 254 260 257 260 261 258 258 258 261
242 242 238 235 238 241 242 244 245 246 247 246 249 250 253 259 263 267 275 283 289 295 297 298 300 300 299 300 295 292 287 285 284 279 274 273 271 265 258 259 258 257 254 255 255 255 257 259 263
239 238 235 234 237 239 243 245 244 246 247 249 251 252 255 260 264 268 272 280 289 293 294 297 298 297 298 296 295 293 288 283 280 277 273 268 266 265 263 264 262 255 251 254 256 256 256 259 263
239 238 237 237 239 241 243 246 243 247 250 251 252 254 257 260 263 268 272 277 283 287 290 295 294 291 291 292 290 285 284 283 281 278 278 275 270 266 265 266 266 262 257 258 259 258 259 262 266
237 238 238 239 240 241 243 247 246 247 251 251 252 253 256 260 263 267 270 273 276 278 283 287 287 285 285 284 283 282 277 276 276 275 277 279 274 272 267 267 268 264 261 263 261 261 260 263 267
237 238 239 239 240 242 244 248 249 249 251 252 252 255 257 260 265 268 269 273 274 275 278 280 280 278 280 280 278 275 270 271 271 273 277 276 273 272 266 269 274 272 271 268 266 267 267 265 264
241 241 242 244 244 244 245 247 250 250 251 252 253 256 259 261 266 268 270 274 273 272 271 274 276 274 274 276 275 269 264 267 269 271 272 273 270 270 271 272 277 278 275 271 269 268 267 268 266
243 243 244 246 247 247 247 247 251 252 256 256 256 258 261 263 265 267 271 273 270 267 268 272 273 275 270 268 270 268 266 267 267 268 269 271 270 269 271 275 275 275 275 274 272 272 269 267 266
243 244 243 245 248 249 250 250 253 253 255 258 257 257 259 263 263 263 267 269 267 265 266 269 271 273 271 265 263 266 270 270 268 267 267 270 272 271 271 271 274 275 276 276 278 278 272 268 267
243 243 245 247 250 252 254 255 256 256 255 256 258 258 258 259 260 262 265 266 267 269 270 270 271 272 270 269 265 266 270 270 269 267 265 266 269 272 272 271 273 275 275 277 278 279 277 272 270
244 245 246 248 250 252 256 257 257 257 256 257 258 257 257 258 258 257 259 263 265 269 274 275 273 273 271 271 266 266 269 270 269 268 267 266 266 269 271 270 271 273 275 277 277 277 276 275 273
Height
5885 5886 5886 5888 5889 5888 5888 5887 5887 5887 5887 5886 5885 5885 5884 5884 5883 5884 5881 5879 5878 5877 5876 5874 5873 5872 5871 5870 5870 5869 5869 5869 5868 5869 5869 5869 5869 5869 5869 5869 5869 5869 5869 5869 5869 5869 5869 5870 5871
5885 5885 5887 5887 5888 5888 5888 5888 5887 5887 5887 5886 5886 5885 5884 5884 5883 5882 5880 5879 5878 5877 5876 5875 5873 5872 5871 5871 5870 5870 5869 5869 5869 5869 5869 5869 5869 5869 5869 5869 5870 5870 5870 5870 5870 5870 5870 5870 5871
5884 5885 5887 5887 5887 5888 5888 5888 5887 5887 5887 5887 5886 5885 5885 5884 5883 5882 5881 5880 5879 5878 5876 5875 5874 5873 5872 5871 5870 5870 5870 5870 5870 5870 5870 5870 5870 5870 5870 5870 5870 5870 5870 5870 5870 5870 5870 5871 5871
5883 5885 5886 5887 5886 5887 5887 5887 5887 5887 5887 5886 5886 5886 5885 5884 5883 5883 5882 5880 5879 5878 5877 5876 5874 5873 5872 5872 5871 5870 5870 5870 5870 5870 5870 5870 5870 5870 5870 5870 5870 5870 5870 5870 5870 5870 5870 5871 5871
5882 5883 5885 5885 5885 5886 5886 5887 5886 5886 5886 5886 5886 5885 5885 5885 5884 5883 5882 5881 5880 5878 5877 5876 5875 5874 5873 5872 5871 5871 5870 5870 5870 5870 5870 5870 5870 5870 5870 5870 5869 5869 5869 5870 5870 5870 5870 5871 5871
5881 5882 5883 5884 5884 5885 5885 5886 5886 5886 5886 5885 5885 5885 5885 5884 5884 5883 5882 5881 5880 5878 5877 5876 5875 5874 5873 5872 5872 5871 5871 5870 5870 5870 5870 5870 5870 5869 5869 5869 5869 5869 5869 5869 5869 5869 5870 5870 5871
5880 5881 5881 5883 5883 5884 5884 5884 5884 5885 5885 5885 5885 5885 5884 5884 5883 5882 5882 5881 5880 5878 5877 5876 5875 5874 5873 5872 5872 5871 5871 5870 5870 5870 5870 5870 5869 5869 5869 5869 5869 5869 5869 5869 5869 5869 5869 5870 5870
5878 5880 5880 5881 5881 5882 5883 5883 5883 5884 5884 5885 5884 5884 5884 5884 5883 5882 5881 5880 5879 5878 5877 5876 5875 5874 5873 5872 5872 5871 5871 5870 5870 5869 5869 5869 5869 5869 5869 5868 5869 5869 5869 5869 5869 5868 5869 5869 5869
5876 5878 5878 5879 5879 5880 5881 5882 5882 5883 5884 5884 5884 5884 5884 5883 5883 5882 5881 5880 5879 5878 5877 5876 5875 5874 5873 5872 5871 5871 5870 5870 5869 5869 5868 5868 5868 5868 5868 5868 5868 5868 5868 5868 5868 5867 5868 5868 5869
5873 5875 5876 5877 5877 5878 5880 5880 5881 5882 5882 5883 5883 5883 5882 5882 5882 5881 5881 5879 5878 5878 5877 5876 5874 5873 5873 5872 5871 5870 5870 5869 5869 5868 5868 5868 5867 5867 5867 5867 5868 5868 5868 5868 5868 5867 5867 5868 5868
5871 5872 5873 5874 5875 5876 5878 5879 5879 5880 5881 5882 5882 5881 5881 5881 5881 5880 5880 5879 5878 5877 5876 5875 5874 5873 5872 5871 5870 5869 5869 5868 5868 5867 5867 5867 5866 5866 5866 5866 5867 5867 5867 5867 5867 5867 5867 5867 5868
5868 5869 5870 5871 5873 5874 5875 5877 5878 5879 5880 5880 5880 5880 5880 5880 5880 5879 5879 5878 5877 5876 5875 5874 5873 5872 5871 5870 5869 5869 5868 5867 5867 5866 5866 5866 5866 5866 5865 5866 5866 5866 5866 5866 5866 5866 5866 5866 5867
5865 5866 5867 5868 5870 5871 5873 5874 5875 5876 5877 5878 5878 5879 5879 5879 5878 5878 5878 5877 5876 5875 5873 5872 5871 5871 5870 5869 5868 5868 5867 5866 5866 5865 5865 5865 5865 5865 5865 5865 5865 5865 5865 5865 5865 5865 5865 5865 5865
5861 5863 5864 5866 5867 5868 5870 5871 5873 5874 5875 5875 5876 5877 5877 5877 5877 5877 5876 5876 5875 5874 5872 5871 5870 5869 5869 5867 5866 5866 5865 5865 5864 5864 5864 5863 5863 5863 5864 5864 5864 5864 5864 5864 5864 5864 5864 5864 5864
5857 5860 5862 5863 5864 5865 5867 5869 5870 5871 5872 5872 5873 5874 5875 5875 5875 5875 5875 5874 5873 5872 5871 5870 5869 5868 5867 5866 5865 5864 5863 5863 5862 5862 5862 5862 5862 5862 5862 5862 5862 5863 5863 5863 5863 5863 5863 5863 5863
5854 5856 5858 5859 5860 5861 5865 5866 5867 5868 5869 5870 5870 5871 5872 5872 5873 5873 5872 5872 5871 5870 5869 5868 5867 5866 5865 5864 5863 5862 5861 5861 5860 5860 5859 5859 5859 5860 5860 5860 5861 5861 5861 5861 5862 5862 5862 5862 5862
5850 5852 5854 5856 5856 5858 5860 5862 5863 5864 5865 5866 5867 5868 5869 5870 5870 5870 5870 5869 5869 5868 5867 5866 5865 5864 5862 5862 5861 5860 5859 5858 5857 5857 5857 5857 5857 5857 5858 5858 5859 5859 5859 5859 5860 5860 5860 5860 5860
5846 5848 5850 5851 5852 5854 5855 5858 5859 5860 5862 5863 5864 5865 5866 5867 5867 5867 5867 5866 5866 5865 5865 5864 5863 5862 5860 5859 5858 5857 5856 5856 5855 5855 5854 5854 5855 5855 5855 5856 5856 5857 5857 5857 5857 5858 5858 5858 5858
5842 5844 5846 5848 5848 5850 5851 5853 5855 5857 5858 5859 5861 5862 5863 5864 5864 5864 5864 5864 5863 5862 5862 5861 5860 5859 5858 5857 5856 5855 5854 5853 5853 5852 5851 5852 5852 5852 5853 5854 5854 5854 5855 5855 5855 5855 5856 5856 5856
5837 5839 5842 5843 5844 5845 5847 5849 5851 5852 5854 5856 5857 5858 5860 5860 5861 5861 5861 5860 5860 5859 5858 5858 5858 5857 5855 5854 5853 5852 5851 5851 5850 5849 5849 5849 5849 5850 5850 5851 5851 5851 5852 5852 5852 5853 5853 5854 5854
5833 5835 5837 5839 5840 5841 5843 5845 5847 5849 5850 5852 5853 5855 5856 5856 5857 5857 5857 5857 5856 5856 5855 5855 5853 5852 5851 5851 5850 5849 5849 5848 5848 5847 5847 5847 5847 5847 5848 5848 5848 5848 5849 5849 5850 5850 5850 5851 5851
5829 5831 5833 5834 5835 5837 5839 5840 5843 5844 5846 5847 5849 5851 5852 5852 5853 5853 5853 5853 5853 5852 5851 5850 5849 5849 5848 5847 5847 5846 5845 5846 5845 5845 5844 5844 5845 5845 5845 5845 5845 5845 5845 5846 5846 5847 5847 5848 5848
5825 5826 5828 5829 5830 5832 5834 5835 5839 5839 5841 5843 5845 5846 5847 5848 5848 5849 5849 5849 5849 5848 5847 5847 5846 5846 5845 5844 5844 5844 5843 5843 5843 5843 5842 5842 5842 5842 5843 5843 5842 5842 5842 5843 5843 5844 5844 5844 5844
5820 5822 5823 5824 5825 5827 5830 5831 5833 5835 5837 5839 5840 5841 5842 5843 5844 5844 5845 5845 5844 5844 5844 5843 5843 5843 5842 5841 5841 5841 5840 5840 5840 5840 5840 5840 5840 5840 5840 5840 5840 5840 5840 5840 5840 5840 5841 5841 5841
5814 5817 5818 5819 5820 5822 5825 5825 5828 5831 5832 5834 5835 5837 5837 5838 5839 5839 5839 5840 5839 5839 5839 5839 5839 5839 5838 5838 5838 5837 5837 5837 5837 5837 5837 5837 5837 5838 5838 5838 5838 5837 5837 5837 5837 5837 5837 5838 5838
5810 5812 5814 5815 5816 5818 5819 5820 5824 5826 5827 5829 5830 5831 5832 5833 5834 5834 5835 5835 5835 5834 5834 5835 5835 5834 5834 5834 5834 5834 5834 5835 5834 5834 5834 5835 5835 5835 5835 5835 5835 5834 5834 5834 5834 5833 5834 5834 5835
5805 5806 5809 5810 5811 5813 5814 5816 5819 5821 5822 5824 5826 5827 5828 5829 5829 5830 5830 5830 5830 5830 5830 5830 5830 5830 5830 5830 5830 5830 5830 5831 5831 5831 5831 5831 5831 5832 5832 5832 5832 5831 5831 5831 5830 5830 5830 5830 5831
5800 5802 5803 5804 5806 5807 5809 5811 5815 5817 5818 5820 5821 5822 5823 5824 5825 5826 5826 5826 5826 5826 5826 5825 5825 5825 5825 5825 5826 5826 5826 5826 5826 5826 5827 5827 5828 5828 5828 5828 5828 5828 5827 5827 5827 5826 5826 5826 5826
5795 5797 5798 5799 5801 5802 5804 5809 5810 5812 5814 5815 5816 5817 5818 5819 5820 5821 5822 5822 5821 5821 5821 5821 5821 5821 5820 5820 5821 5821 5822 5822 5822 5822 5823 5823 5823 5823 5824 5824 5824 5824 5824 5823 5823 5822 5822 5822 5822
5790 5791 5793 5795 5796 5798 5799 5805 5805 5807 5809 5810 5811 5812 5813 5814 5816 5816 5817 5817 5817 5817 5817 5817 5816 5816 5816 5816 5816 5817 5817 5817 5817 5817 5818 5818 5819 5819 5819 5820 5820 5819 5819 5819 5818 5818 5817 5817 5817